Terminal Aerodrome Forecast
Issued by NWS Cleveland, OH

Home | Current Version | Previous Version | Graphics & Text | Print | Product List | Glossary On
Versions: 1 2 3 4 5 6 7 8 9 10 11 12 13 14 15 16 17 18
000
FTUS41 KCLE 312338
TAFCAK
TAF
KCAK 312338Z 0100/0124 34014KT P6SM OVC004
     FM011500 01010KT P6SM OVC008
     FM012000 02010KT P6SM BKN015 OVC200=

USA.gov is the U.S. government's official web portal to all federal, state and local government web resources and services.